Location: Unnamed
(42.1164°N, 2.7652°E)
Time: 19:24:07
(UTC+02:00)

ISS - Pass Details

Date: 10 May 2021
Orbit: 417 x 422 km, 51.6° (Epoch: 14 June)

Event Time Altitude Azimuth Distance (km) Brightness Sun altitude
Rises 05:57:50 0° 307° (NW) 2,376 -0.2 -6.7°
Reaches altitude 10° 06:00:03 10° 317° (NW) 1,510 -1.1 -6.3°
Maximum altitude 06:03:12 35° 25° (NNE) 706 -2.0 -5.8°
Drops below altitude 10° 06:06:21 10° 93° (E) 1,506 0.1 -5.3°
Sets 06:08:33 0° 103° (ESE) 2,369 0.9 -4.9°
